EDT,Max TemperatureF,Mean TemperatureF,Min TemperatureF,Max Dew PointF,MeanDew PointF,Min DewpointF,Max Humidity, Mean Humidity, Min Humidity, Max Sea Level PressureIn, Mean Sea Level PressureIn, Min Sea Level PressureIn, Max VisibilityMiles, Mean VisibilityMiles, Min VisibilityMiles, Max Wind SpeedMPH, Mean Wind SpeedMPH, Max Gust SpeedMPH,PrecipitationIn, CloudCover, Events, WindDirDegrees
2010-10-1,78,71,63,68,63,59,100,77,54,29.87,29.75,29.64,10,9,6,18,8,23,0.00,2,,348
2010-10-2,78,70,61,62,57,55,100,73,45,29.93,29.87,29.84,10,10,7,18,9,23,0.00,2,,15
2010-10-3,78,68,58,58,55,52,93,68,43,30.00,29.91,29.84,10,10,10,22,9,25,0.00,1,,359
2010-10-4,75,65,55,56,54,51,100,72,43,30.12,30.06,29.99,10,10,9,17,7,23,0.00,2,,13
2010-10-5,75,64,52,54,50,44,100,68,35,30.18,30.14,30.10,10,10,8,18,8,23,0.00,1,,356
2010-10-6,74,60,46,50,45,39,93,61,29,30.16,30.09,30.01,10,10,10,16,6,21,0.00,0,,332
2010-10-7,81,66,50,56,49,44,89,59,28,30.08,30.02,29.96,10,10,10,10,4,14,0.00,0,,293
2010-10-8,84,70,55,65,58,50,93,71,48,30.09,30.04,29.99,10,10,7,10,4,14,0.00,1,,34
2010-10-9,83,71,59,66,60,53,100,69,37,30.09,30.04,29.98,10,6,0,9,3,20,0.00,1,Fog,330
2010-10-10,85,74,62,65,62,57,100,72,43,30.05,30.00,29.94,10,8,5,10,5,13,0.00,0,,246
2010-10-11,87,74,61,69,64,54,100,66,32,30.01,29.97,29.91,10,7,1,12,5,17,0.00,0,Fog,220
2010-10-12,85,75,65,68,63,57,97,70,43,29.98,29.95,29.91,10,9,7,16,8,22,0.00,1,,237
2010-10-13,84,76,67,67,65,62,93,72,51,29.98,29.94,29.90,10,10,8,13,6,24,T,3,Rain,240
2010-10-14,84,72,60,67,62,56,100,70,40,29.93,29.87,29.78,10,9,4,22,6,29,T,2,Fog-Rain,281
2010-10-15,75,62,49,59,47,40,100,65,29,30.01,29.93,29.83,10,10,10,17,7,23,0.00,0,,296
2010-10-16,72,59,45,48,43,37,86,58,29,30.16,30.10,30.02,10,10,9,18,6,24,0.00,0,,357
2010-10-17,77,63,48,52,47,43,86,58,29,30.18,30.12,30.06,10,10,10,10,3,17,0.00,0,,220
2010-10-18,81,68,55,56,53,47,93,62,30,30.09,30.02,29.95,10,10,10,16,7,20,0.00,0,,228
2010-10-19,81,70,58,61,57,51,100,68,36,29.99,29.94,29.88,10,10,8,14,7,20,0.00,1,,232
2010-10-20,80,70,60,63,60,57,97,73,48,29.92,29.89,29.85,10,9,6,16,6,54,0.00,2,,267
2010-10-21,78,68,58,61,53,47,100,67,33,29.95,29.90,29.86,10,10,6,15,7,20,0.00,0,Fog,270
2010-10-22,77,63,49,51,47,44,89,61,33,30.23,30.09,29.95,10,10,8,16,5,22,0.00,0,,353
2010-10-23,77,62,46,55,50,44,93,65,36,30.30,30.26,30.23,10,10,10,12,5,17,0.00,0,,64
2010-10-24,81,68,54,68,61,54,100,77,54,30.25,30.19,30.11,10,10,8,15,5,21,0.01,3,,112
2010-10-25,82,74,66,74,68,64,100,85,69,30.09,29.99,29.94,10,9,2,23,8,32,0.82,5,Rain-Thunderstorm,179
2010-10-26,84,77,69,74,72,69,100,83,65,30.01,29.96,29.93,10,9,6,22,12,29,0.00,4,,191
2010-10-27,86,81,76,75,74,73,94,82,70,30.11,30.06,30.00,10,10,9,22,14,28,0.00,4,,204
2010-10-28,85,78,71,75,73,69,94,80,65,30.09,30.03,29.95,10,10,8,15,9,22,0.00,5,,234
2010-10-29,72,61,50,65,47,41,83,60,37,30.19,30.10,29.97,10,10,10,21,9,29,0.00,1,,354
2010-10-30,73,59,44,56,47,41,89,65,41,30.26,30.18,30.09,10,10,10,9,4,16,0.00,0,,106
2010-10-31,78,67,56,64,58,55,100,73,45,30.11,30.05,29.99,10,9,2,17,7,24,0.00,0,,251